{"data":{"norad_id":62783,"intl_designator":"2025-015AB","name":"STARLINK-33582","alt_names":[],"object_type":"PAYLOAD","status":"ACTIVE","operator":null,"country":"US","launch_date":"2025-01-21","launch_site_code":"AFWTR","launch_vehicle":null,"mission":null,"orbit_class":"UNKNOWN","rcs_meters":null,"size_class":null,"mass_kg":null,"dimensions":null,"purposes":["comms"],"wikipedia_slug":null,"has_3d_model":false,"image_url":null,"decayed_at":null,"tle_current":{"epoch":"2026-05-24T18:32:47.244192Z","epoch_age_seconds":98169,"freshness":"FRESH","line1":"1 62783U 25015AB  26144.77276903  .00064318  00000+0  17523-2 0  9998","line2":"2 62783  53.1592 327.3652 0002962 214.0868 145.9946 15.36904347 76080","mean_motion":15.36904347,"eccentricity":0.0002962,"inclination_deg":53.1592,"raan_deg":327.3652,"arg_perigee_deg":214.0868,"mean_anomaly_deg":145.9946,"bstar":0.0017523,"rev_number":7608,"period_min":93.694835518609,"perigee_km":453.24584728727,"apogee_km":457.29395753626,"semimajor_km":6833.4069024118,"source":"CELESTRAK","updated_at":"2026-05-25T13:38:19.748859Z"}}}